Regional Weather Roundup
Issued by NWS

Home | Current Version | Previous Version | Text Only | Print | Product List | Glossary Off
Versions: 1 2 3 4 5 6 7 8 9 10 11 12 13 14 15 16 17 18 19 20 21 22 23 24 25 26 27 28 29 30 31 32 33 34 35 36 37 38 39 40 41 42 43 44 45 46 47 48 49 50

000
ASUS43 KMKX 090000
RWRWI

WISCONSIN REGIONAL WEATHER ROUNDUP
NATIONAL WEATHER SERVICE MILWAUKEE/SULLIVAN WI
600 PM CST THU DEC 08 2016

NOTE: "FAIR" INDICATES FEW OR NO CLOUDS BELOW 12,000 FEET WITH NO
SIGNIFICANT WEATHER AND/OR OBSTRUCTIONS TO VISIBILITY.

WIZ001-002-006>008-014>016-023>028-090100-
NORTHWEST WISCONSIN

CITY           SKY/WX    TMP DP  RH WIND       PRES   REMARKS
SUPERIOR ARPT  PTCLDY    23  12  64 NW12G17   30.40R WCI  11
ASHLAND        CLOUDY    23  17  78 NW8       30.35S WCI  14
6HR MIN TEMP:  22; 6HR MAX TEMP:  29; 6HR PCP:  0.01;

HAYWARD        PTCLDY    21  12  68 VRB5      30.35R WCI  15
6HR MIN TEMP:  21; 6HR MAX TEMP:  24; 6HR PCP: TRACE;

SIREN          CLOUDY    23  15  71 NW8       30.40S WCI  14
CUMBERLAND     CLOUDY    23  14  68 NW9G17    30.37R WCI  13
RICE LAKE      CLOUDY    23  16  72 NW7       30.38S WCI  15
CHETEK         CLOUDY    24  15  69 NW5       30.37R WCI  18
LADYSMITH      FLURRIES  24  16  70 NW13      30.35R WCI  13
EAU CLAIRE     FLURRIES  23  18  80 NW9       30.38S WCI  13
MENOMONIE      CLOUDY    24  17  74 W8        30.40R WCI  15
NEW RICHMOND   FLURRIES  22  14  72 NW12      30.42R WCI  10
OSCEOLA        CLOUDY    23  15  69 NW8G17    30.45S WCI  14
$$

WIZ003>005-009-010-017-018-090100-
NORTH CENTRAL WISCONSIN

CITY           SKY/WX    TMP DP  RH WIND       PRES   REMARKS
MANITOWISH WTR LGT SNOW  20  19  95 NW9       30.24R WCI  10
ARBOR VITAE    CLEAR     22  17  81 NW10      30.24R WCI  11
WOODRUFF       CLEAR     22  17  81 NW10      30.24R WCI  11
RHINELANDER    PTCLDY    22  16  78 NW8G17    30.24R WCI  12
6HR MIN TEMP:  22; 6HR MAX TEMP:  27; 6HR PCP:  0.01;

EAGLE RIVER    FLURRIES  21  16  81 NW8       30.21R WCI  11
LAND O LAKES   LGT SNOW  22  20  89 NW3       30.22R VSB 1
PHILLIPS       CLOUDY    21  15  76 W6        30.28R WCI  14
6HR MIN TEMP:  21; 6HR MAX TEMP:  24;

TOMAHAWK       MOCLDY    23  16  77 NW12      30.26R WCI  11
MEDFORD        CLOUDY    21  15  76 NW9       30.28R WCI  11
MERRILL        FLURRIES  22  17  80 NW8       30.28R WCI  13
$$

WIZ029-030-035-036-043>047-090100-
CENTRAL WISCONSIN

CITY           SKY/WX    TMP DP  RH WIND       PRES   REMARKS
WAUSAU         MOCLDY    21  15  78 W10       30.27R WCI  10
6HR MIN TEMP:  21; 6HR MAX TEMP:  26;

MOSINEE        PTCLDY    21  16  79 W10       30.29R WCI  10
MARSHFIELD     CLOUDY    21  15  78 NW12      30.30R WCI   9
6HR MIN TEMP:  20; 6HR MAX TEMP:  24; 6HR PCP: TRACE;

STEVENS POINT  CLOUDY    21  13  71 W7        30.30R WCI  13
WAUPACA        CLEAR     26  15  64 W8        30.29R WCI  17
WAUTOMA        PTCLDY    23  16  74 W12       30.32R WCI  12
6HR MIN TEMP:  23; 6HR MAX TEMP:  26; 6HR PCP: TRACE;

WISC RAPIDS    CLOUDY    22  15  75 W7        30.33R WCI  13
6HR MIN TEMP:  22; 6HR MAX TEMP:  26; 6HR PCP: TRACE;

CAMP DOUGLAS   NOT AVBL
$$

WIZ011>013-019>022-031-037>040-048>050-090100-
NORTHEAST WISCONSIN

CITY           SKY/WX    TMP DP  RH WIND       PRES   REMARKS
ANTIGO         LGT SNOW  22  20  91 NW12      30.23R WCI  11
SHAWANO        FLURRIES  29  19  65 W9        30.26R WCI  21
OCONTO         CLOUDY    26  22  84 W6        30.24R WCI  20
STURGEON BAY   CLOUDY    29  21  72 NW13G20   30.22R WCI  19
6HR MIN TEMP:  29; 6HR MAX TEMP:  33; 6HR PCP: TRACE;

GREEN BAY      MOCLDY    28  19  69 W15       30.26R WCI  16
6HR MIN TEMP:  28; 6HR MAX TEMP:  34; 6HR PCP: TRACE;

MANITOWOC      NOT AVBL
APPLETON       PTCLDY    25  14  63 W14       30.25R WCI  13
CLINTONVILLE   MOCLDY    27  18  69 W15       30.27R WCI  15
OSHKOSH        MOCLDY    24  15  68 W13       30.29R WCI  12
6HR MIN TEMP:  24; 6HR MAX TEMP:  27;

$$

WIZ032>034-041-042-053>061-090100-
SOUTHWEST WISCONSIN

CITY           SKY/WX    TMP DP  RH WIND       PRES   REMARKS
LA CROSSE      CLOUDY    26  16  65 W13G21    30.41R WCI  15
6HR MIN TEMP:  25; 6HR MAX TEMP:  27; 6HR PCP: TRACE;

SPARTA         FLURRIES  24  18  77 W6        30.39R WCI  17
VIROQUA        CLOUDY    22  19  88 W8        30.36S WCI  12
6HR MIN TEMP:  21; 6HR MAX TEMP:  22;

BOSCOBEL       CLOUDY    25  16  68 W7        30.42R WCI  17
6HR MIN TEMP:  23; 6HR MAX TEMP:  26;

PRAIRIE DU CHI FLURRIES  23  15  71 W13G18    30.44R WCI  11
PLATTEVILLE    CLOUDY    22  18  83 W10       30.40R WCI  11
$$

WIZ056-057-062-063-064-067-068-090100-
SOUTH CENTRAL WISCONSIN

CITY           SKY/WX    TMP DP  RH WIND       PRES   REMARKS
REEDSBURG      CLOUDY    23  16  75 W8        30.35S WCI  14
BARABOO/DELLS  FLURRIES  23  16  75 W8        30.35R WCI  14
LONE ROCK      CLOUDY    24  16  71 W9        30.40R WCI  14
MINERAL POINT  FLURRIES  23  19  86 W9        30.37R WCI  13
MADISON        FLURRIES  23  15  71 W7        30.35S WCI  15
6HR MIN TEMP:  21; 6HR MAX TEMP:  23; 6HR PCP: TRACE;

MIDDLETON      CLOUDY    24  19  78 W10       30.36S WCI  14
WATERTOWN      MOCLDY    23  18  80 W15G21    30.32S WCI  10
MONROE         FLURRIES  23  18  80 W10G16    30.36R WCI  12
JANESVILLE     FLURRIES  25  18  74 W12       30.36R WCI  14
$$

WIZ051-052-058>065-066-070>072-090100-
SOUTHEAST WISCONSIN

CITY           SKY/WX    TMP DP  RH WIND       PRES   REMARKS
MILWAUKEE      PTCLDY    25  15  66 W14       30.31R WCI  13
6HR MIN TEMP:  24; 6HR MAX TEMP:  26; 6HR PCP: TRACE;

WAUKESHA       PTCLDY    21  16  79 W14G20    30.31R WCI   8
MILWAUKEE/TIMM CLEAR     23  14  68 W13       30.31  WCI  11
RACINE         CLEAR     24  15  68 W12G23    30.32S WCI  13
6HR MIN TEMP:  22; 6HR MAX TEMP:  25; 6HR PCP: TRACE;

BURLINGTON     FLURRIES  28  22  77 W10G18    30.34R WCI  19
KENOSHA        CLOUDY    24  15  68 W18G24    30.32S WCI  10
6HR MIN TEMP:  21; 6HR MAX TEMP:  25; 6HR PCP: TRACE;

FOND DU LAC    CLOUDY    25  14  63 W10       30.29R WCI  15
6HR MIN TEMP:  25; 6HR MAX TEMP:  27; 6HR PCP: TRACE;

SHEBOYGAN      PTCLDY    26  16  65 W15G23    30.26R WCI  14
6HR MIN TEMP:  25; 6HR MAX TEMP:  28;

WEST BEND      CLEAR     23  19  86 W13G22    30.28R WCI  11
JUNEAU         CLEAR     22  16  76 W9        30.31S WCI  12
$$

LSZ147-162-090100-
LAKE SUPERIOR

STATION/POSITION TIME  TEMP    WIND        PRES    WAVE
                       AIR SEA DIR/SP/G            HT/PER
                 (UTC) (F)     (DEG/KT/KT) (MB)    (FT/S)
DEVILS ISLAND    2300   25     320/ 25/ 29 1028.4R
PORT WING        2330   27     330/ 18/ 21 1028.1R
SAXON HARBOR     2330   28     330/ 19/ 23 1026.8R
$$

LMZ867-665-643>646-090100-
LAKE MICHIGAN

STATION/POSITION TIME  TEMP    WIND        PRES    WAVE
                       AIR SEA DIR/SP/G            HT/PER
                 (UTC) (F)     (DEG/KT/KT) (MB)    (FT/S)
CHAMBERS ISLAND  2340   31     300/ 10/ 17 1022.7R
NORTHPORT PIER   2340   32     310/ 17/ 27 1022.4R
SISTER BAY       2320   32     350/ 26/ 33   N/A
ALGOMA LAKESHORE 2236          300/ 11/ 16   N/A
KEWAUNEE LAKESHO 2330   28     300/  8/ 12 1023.0R
SHEBOYGAN LAKESH 2300   27     280/ 15/ 19 1025.0R
PORT WASHINGTON  2340   25     280/ 10/ 16 1026.1S
MILWAUKEE LAKESH 2330   26     270/ 14/ 17   N/A
KENOSHA   LAKESH 2300   25     290/ 18/ 25 1026.4
$$

TC  - TEMPERATURE IN CELSIUS
VSB - VISIBILITY IN STATUTE MILES
WCI - WIND CHILL INDEX
HX  - HEAT INDEX





USA.gov is the U.S. government's official web portal to all federal, state and local government web resources and services.